Volver al catálogo

STARLINK-32410

ActivoComunicacionesVLEO
NORAD 61887·PAYLOAD·🇺🇸 United States

Lanzado Nov 9, 2024 desde Vandenberg Space Force Base

Loading…

Próximos Pases (próximas 24 horas)

TLE

ActualizadoSource: CelesTrak SupGP

Época: Sep 14, 2026, 22:37 UTC

1 61887C 24204P   26257.94284722  .00014612  00000+0  43174-3 0  2574
2 61887  53.1581 323.7133 0001126  86.1672 279.7007 15.34380775    13

Sigue STARLINK-32410 en tiempo real con AllMySat

Download on the App Store